M I D A S
Marine Information and Data Acquisition System
Tripno 2303 of the Zeeleeuw from 2012-03-06 08:06:39 to 2012-03-06 15:37:02
Back to CruiseResearch ActivitiesStationsMapUnderway DataData graphs

EquipmentUnitsComments
TimeDGPSUTC
LatitudeDGPSDM.mWGS84
LongitudeDGPSDM.mWGS84
SpeedMeteo Stationm/sRelative wind speed
DirectionMeteo StationdegRelative wind direction
TemperatureMeteo Stationdeg CelciusAir temperature
PressureMeteo StationPaAtmospheric pressure
HumidityMeteo Station%Relative humidity
Missing or incorrect values are displayed as -999
Metereological data collected by the RV Zeeleeuw from 2012-03-06 07:05:44 to 2012-03-06 15:48:34
                                                                                    Next 1000 lines
Time Latitude Longitude Speed Direction Temperature Pressure Humidity
2012-03-06 07:05:53 51°13.638 2°56.016 1.1 21 4 102140 52
2012-03-06 07:05:59 51°13.639 2°56.016 0.4 309 4 102140 52
2012-03-06 07:06:04 51°13.639 2°56.016 0.5 20 4 102140 52
2012-03-06 07:06:09 51°13.64 2°56.016 1 303 4 102140 52
2012-03-06 07:06:14 51°13.639 2°56.015 1.1 250 4 102140 51
2012-03-06 07:06:19 51°13.64 2°56.015 0.9 310 4 102140 51
2012-03-06 07:06:24 51°13.64 2°56.015 0.2 249 4 102140 53
2012-03-06 07:06:29 51°13.639 2°56.015 0.1 283 4 102140 53
2012-03-06 07:06:34 51°13.639 2°56.015 0.1 28 4 102150 53
2012-03-06 07:06:39 51°13.639 2°56.015 1.4 306 4 102150 53
2012-03-06 07:06:44 51°13.64 2°56.015 0.7 20 4 102140 52
2012-03-06 07:06:50 51°13.639 2°56.015 0.1 302 4 102140 52
2012-03-06 07:06:55 51°13.639 2°56.016 0.4 19 4 102150 52
2012-03-06 07:07:00 51°13.639 2°56.016 0.1 307 4 102150 52
2012-03-06 07:07:05 51°13.639 2°56.016 0.1 22 4 102150 52
2012-03-06 07:07:08 51°13.64 2°56.016 -999 283 4 102150 52
2012-03-06 07:07:15 51°13.64 2°56.016 -999 283 4 102150 52
2012-03-06 07:07:20 51°13.639 2°56.016 -999 283 4 102150 52
2012-03-06 07:07:25 51°13.639 2°56.016 -999 283 4 102150 52
2012-03-06 07:07:30 51°13.639 2°56.016 -999 283 4 102150 52
2012-03-06 07:07:35 51°13.639 2°56.016 -999 283 -999 -999 -999
2012-03-06 07:07:40 51°13.639 2°56.016 -999 -999 -999 -999 -999
2012-03-06 07:07:45 51°13.639 2°56.016 -999 -999 -999 -999 -999
2012-03-06 07:07:49 51°13.639 2°56.016 -999 24 -999 -999 -999
2012-03-06 07:07:55 51°13.639 2°56.016 0.8 17 -999 -999 -999
2012-03-06 07:08:00 51°13.639 2°56.016 0.1 307 -999 -999 -999
2012-03-06 07:08:05 51°13.639 2°56.016 0.1 22 -999 -999 -999
2012-03-06 07:08:09 51°13.639 2°56.016 1.1 310 -999 -999 -999
2012-03-06 07:08:15 51°13.639 2°56.016 1.6 18 3.9 -999 35
2012-03-06 07:08:20 51°13.639 2°56.016 0.3 303 3.9 -999 35
2012-03-06 07:08:25 51°13.64 2°56.016 0.1 249 4 -999 52
2012-03-06 07:08:30 51°13.639 2°56.016 0.1 305 4 -999 52
2012-03-06 07:08:35 51°13.639 2°56.016 0.9 255 4 102140 52
2012-03-06 07:08:40 51°13.64 2°56.016 0.1 306 4 102140 52
2012-03-06 07:08:45 51°13.639 2°56.016 0.1 254 4 102150 52
2012-03-06 07:08:49 51°13.639 2°56.016 1.2 307 4 102150 52
2012-03-06 07:08:55 51°13.64 2°56.016 0.5 249 4 102150 52
2012-03-06 07:09:00 51°13.639 2°56.016 1.8 310 4 102150 52
2012-03-06 07:09:05 51°13.639 2°56.016 2.4 255 4 102150 52
2012-03-06 07:09:10 51°13.639 2°56.016 1.8 311 4 102150 52
2012-03-06 07:09:15 51°13.639 2°56.016 1.5 249 4 102150 52
2012-03-06 07:09:20 51°13.639 2°56.016 1.1 306 4 102150 52
2012-03-06 07:09:25 51°13.639 2°56.016 0.4 21 4 102150 53
2012-03-06 07:09:30 51°13.639 2°56.016 1.3 304 4 102150 53
2012-03-06 07:09:35 51°13.639 2°56.016 0.5 253 4 102150 52
2012-03-06 07:09:40 51°13.639 2°56.017 0.7 310 4 102150 52
2012-03-06 07:09:45 51°13.639 2°56.016 1 246 4 102150 51
2012-03-06 07:09:50 51°13.639 2°56.016 0.2 302 4 102150 51
2012-03-06 07:09:55 51°13.639 2°56.017 0.9 21 4 102150 52
2012-03-06 07:10:00 51°13.639 2°56.017 0.2 302 4 102150 52
2012-03-06 07:10:05 51°13.639 2°56.016 0.6 27 4 102150 52
2012-03-06 07:10:10 51°13.638 2°56.016 0.2 311 4 102150 52
2012-03-06 07:10:15 51°13.638 2°56.017 1.3 252 4 102150 52
2012-03-06 07:10:20 51°13.638 2°56.017 0.2 304 4 102150 52
2012-03-06 07:10:25 51°13.638 2°56.017 0.1 24 4 102150 52
2012-03-06 07:10:30 51°13.638 2°56.017 -999 307 4 102150 52
2012-03-06 07:10:35 51°13.638 2°56.017 -999 23 4 102150 52
2012-03-06 07:10:40 51°13.638 2°56.017 -999 307 4 102150 52
2012-03-06 07:10:45 51°13.638 2°56.017 -999 23 4 102150 52
2012-03-06 07:10:49 51°13.638 2°56.016 0.1 312 4 102150 52
2012-03-06 07:10:55 51°13.638 2°56.016 0.1 21 4 102150 52
2012-03-06 07:11:00 51°13.638 2°56.016 0.1 307 4 102150 52
2012-03-06 07:11:05 51°13.638 2°56.016 0.1 28 4 102150 52
2012-03-06 07:11:10 51°13.638 2°56.016 0.5 307 4 102150 52
2012-03-06 07:11:15 51°13.638 2°56.016 0.1 22 4 102150 52
2012-03-06 07:11:20 51°13.638 2°56.016 0.1 307 4 102150 52
2012-03-06 07:11:25 51°13.638 2°56.016 0.1 21 4 102150 52
2012-03-06 07:11:30 51°13.638 2°56.016 0.1 307 4 102150 52
2012-03-06 07:11:35 51°13.638 2°56.016 0.8 252 4 102150 52
2012-03-06 07:11:40 51°13.638 2°56.016 0.4 306 4 102150 52
2012-03-06 07:11:45 51°13.638 2°56.016 0.1 24 4 102160 52
2012-03-06 07:11:50 51°13.638 2°56.016 0.6 311 4 102160 52
2012-03-06 07:11:55 51°13.638 2°56.016 1.2 21 4 102150 52
2012-03-06 07:12:00 51°13.638 2°56.016 1.9 305 4 102150 52
2012-03-06 07:12:05 51°13.638 2°56.016 1.7 251 4 102160 52
2012-03-06 07:12:10 51°13.638 2°56.016 1.8 302 4 102160 52
2012-03-06 07:12:15 51°13.638 2°56.016 1.3 19 4 102160 52
2012-03-06 07:12:20 51°13.638 2°56.016 3 303 4 102160 52
2012-03-06 07:12:25 51°13.638 2°56.016 1.9 21 4 102160 52
2012-03-06 07:12:30 51°13.638 2°56.017 0.6 307 4 102160 52
2012-03-06 07:12:35 51°13.638 2°56.016 0.3 322 4 102160 53
2012-03-06 07:12:40 51°13.637 2°56.016 0.1 307 4 102160 53
2012-03-06 07:12:45 51°13.637 2°56.017 1.3 21 4 102160 52
2012-03-06 07:12:50 51°13.637 2°56.017 2.7 311 4 102160 52
2012-03-06 07:12:55 51°13.638 2°56.017 2.4 253 4 102160 52
2012-03-06 07:13:00 51°13.638 2°56.017 0.7 307 4 102160 52
2012-03-06 07:13:05 51°13.637 2°56.017 1.7 20 4 102160 52
2012-03-06 07:13:09 51°13.638 2°56.017 0.2 307 4 102160 52
2012-03-06 07:13:15 51°13.638 2°56.017 0.1 254 4 102160 53
2012-03-06 07:13:20 51°13.638 2°56.017 -999 302 4 102160 53
2012-03-06 07:13:25 51°13.638 2°56.017 0.4 22 4 102160 53
2012-03-06 07:13:30 51°13.638 2°56.017 0.2 309 4 102160 53
2012-03-06 07:13:35 51°13.638 2°56.017 0.1 21 4 102160 52
2012-03-06 07:13:40 51°13.638 2°56.017 0.4 309 4 102160 52
2012-03-06 07:13:45 51°13.638 2°56.017 0.6 19 4 102160 52
2012-03-06 07:13:50 51°13.637 2°56.017 0.4 302 4 102160 52
2012-03-06 07:13:55 51°13.637 2°56.016 2.5 26 4 102160 52
2012-03-06 07:14:00 51°13.637 2°56.016 1.3 311 4 102160 52
2012-03-06 07:14:05 51°13.637 2°56.016 0.9 18 4.1 102160 52
2012-03-06 07:14:10 51°13.638 2°56.016 0.9 309 4.1 102160 52
2012-03-06 07:14:15 51°13.638 2°56.016 1.4 27 4 102160 52
2012-03-06 07:14:20 51°13.637 2°56.016 1.9 303 4 102160 52
2012-03-06 07:14:25 51°13.637 2°56.016 2.4 18 4.1 102160 51
2012-03-06 07:14:30 51°13.638 2°56.016 2.5 308 4.1 102160 51
2012-03-06 07:14:35 51°13.638 2°56.016 1.2 250 4.1 102160 52
2012-03-06 07:14:40 51°13.638 2°56.016 2.2 305 4.1 102160 52
2012-03-06 07:14:45 51°13.638 2°56.016 1.1 18 4 102160 53
2012-03-06 07:14:50 51°13.637 2°56.016 1 307 4 102160 53
2012-03-06 07:14:55 51°13.637 2°56.016 0.3 29 4.1 102160 50
2012-03-06 07:14:59 51°13.637 2°56.016 1.2 304 4.1 102160 50
2012-03-06 07:15:04 51°13.637 2°56.015 1.3 20 4.1 102170 52
2012-03-06 07:15:09 51°13.637 2°56.015 1.1 309 4.1 102170 52
2012-03-06 07:15:14 51°13.637 2°56.015 1 25 4.1 102170 52
2012-03-06 07:15:20 51°13.637 2°56.015 1 304 4.1 102170 52
2012-03-06 07:15:24 51°13.636 2°56.015 0.4 20 4.1 102160 52
2012-03-06 07:15:29 51°13.636 2°56.015 1.6 303 4.1 102160 52
2012-03-06 07:15:35 51°13.636 2°56.014 1.9 21 4.1 102160 52
2012-03-06 07:15:40 51°13.637 2°56.015 0.7 301 4.1 102160 52
2012-03-06 07:15:45 51°13.636 2°56.015 1.4 21 4.1 102160 52
2012-03-06 07:15:49 51°13.636 2°56.015 0.5 302 4.1 102160 52
2012-03-06 07:15:54 51°13.636 2°56.015 0.2 21 4.1 102160 51
2012-03-06 07:16:00 51°13.637 2°56.015 0.1 306 4.1 102160 51
2012-03-06 07:16:05 51°13.637 2°56.015 0.8 21 4.1 102170 52
2012-03-06 07:16:09 51°13.637 2°56.015 0.8 303 4.1 102170 52
2012-03-06 07:16:14 51°13.637 2°56.016 1.4 248 4.1 102170 52
2012-03-06 07:16:20 51°13.638 2°56.016 0.6 310 4.1 102170 52
2012-03-06 07:16:25 51°13.638 2°56.016 1.7 25 4.1 102160 52
2012-03-06 07:16:29 51°13.637 2°56.016 1.5 302 4.1 102160 52
2012-03-06 07:16:34 51°13.637 2°56.016 2.7 250 4.1 102160 52
2012-03-06 07:16:39 51°13.637 2°56.016 1.4 305 4.1 102160 52
2012-03-06 07:16:45 51°13.637 2°56.015 1.4 21 4.1 102170 51
2012-03-06 07:16:49 51°13.637 2°56.015 1.7 302 4.1 102170 51
2012-03-06 07:16:54 51°13.637 2°56.016 1.5 25 4.1 102170 53
2012-03-06 07:16:59 51°13.637 2°56.015 1.2 311 4.1 102170 53
2012-03-06 07:17:04 51°13.637 2°56.015 1.9 21 4.1 102160 53
2012-03-06 07:17:09 51°13.637 2°56.015 0.8 303 4.1 102160 53
2012-03-06 07:17:14 51°13.637 2°56.015 0.6 19 4.1 102170 51
2012-03-06 07:17:20 51°13.636 2°56.015 0.1 302 4.1 102170 51
2012-03-06 07:17:24 51°13.637 2°56.016 2.9 248 4.1 102170 53
2012-03-06 07:17:29 51°13.636 2°56.015 2.6 305 4.1 102170 53
2012-03-06 07:17:34 51°13.637 2°56.015 2.4 27 4.1 102170 51
2012-03-06 07:17:40 51°13.636 2°56.015 0.9 308 4.1 102170 51
2012-03-06 07:17:44 51°13.637 2°56.015 1 22 4.1 102170 52
2012-03-06 07:17:49 51°13.636 2°56.015 2 309 4.1 102170 52
2012-03-06 07:17:54 51°13.636 2°56.015 3 253 4.1 102170 53
2012-03-06 07:18:00 51°13.636 2°56.015 2.1 310 4.1 102170 53
2012-03-06 07:18:05 51°13.637 2°56.015 3.1 21 4.1 102170 53
2012-03-06 07:18:09 51°13.637 2°56.015 2.9 305 4.1 102170 53
2012-03-06 07:18:15 51°13.636 2°56.015 3.2 20 4.1 102170 52
2012-03-06 07:18:20 51°13.636 2°56.015 2.4 303 4.1 102170 52
2012-03-06 07:18:25 51°13.636 2°56.015 2.4 245 4.1 102170 52
2012-03-06 07:18:29 51°13.636 2°56.015 3.4 305 4.1 102170 52
2012-03-06 07:18:34 51°13.637 2°56.015 2.7 20 4.1 102170 51
2012-03-06 07:18:39 51°13.637 2°56.015 2 308 4.1 102170 51
2012-03-06 07:18:45 51°13.637 2°56.016 1.9 245 4 102170 51
2012-03-06 07:18:49 51°13.637 2°56.016 3.5 304 4 102170 51
2012-03-06 07:18:54 51°13.637 2°56.016 2.9 24 4 102170 53
2012-03-06 07:18:59 51°13.637 2°56.016 2.8 305 4 102170 53
2012-03-06 07:19:04 51°13.637 2°56.016 2.7 249 4 102170 52
2012-03-06 07:19:09 51°13.637 2°56.016 2.8 303 4 102170 52
2012-03-06 07:19:14 51°13.637 2°56.016 2.2 19 4 102170 53
2012-03-06 07:19:19 51°13.637 2°56.016 1.4 307 4 102170 53
2012-03-06 07:19:24 51°13.638 2°56.016 2.5 24 4 102170 51
2012-03-06 07:19:29 51°13.637 2°56.016 1.8 309 4 102170 51
2012-03-06 07:19:34 51°13.638 2°56.016 1.9 18 4 102180 53
2012-03-06 07:19:40 51°13.638 2°56.016 2.8 309 4 102180 53
2012-03-06 07:19:44 51°13.638 2°56.016 1.4 23 4 102170 51
2012-03-06 07:19:49 51°13.638 2°56.016 2.3 311 4 102170 51
2012-03-06 07:19:54 51°13.639 2°56.016 1.6 20 4 102170 51
2012-03-06 07:19:59 51°13.639 2°56.015 1.4 303 4 102170 51
2012-03-06 07:20:05 51°13.638 2°56.016 1 246 4 102170 52
2012-03-06 07:20:09 51°13.638 2°56.016 0.9 302 4 102170 52
2012-03-06 07:20:14 51°13.638 2°56.016 0.2 254 4 102180 51
2012-03-06 07:20:20 51°13.638 2°56.016 1.3 306 4 102180 51
2012-03-06 07:20:25 51°13.638 2°56.016 2.3 20 4 102180 51
2012-03-06 07:20:29 51°13.638 2°56.016 1.3 309 4 102180 51
2012-03-06 07:20:34 51°13.638 2°56.016 1.1 22 4 102170 52
2012-03-06 07:20:40 51°13.638 2°56.016 1.2 309 4 102170 52
2012-03-06 07:20:45 51°13.638 2°56.016 0.3 250 4 102180 53
2012-03-06 07:20:49 51°13.638 2°56.016 1.9 304 4 102180 53
2012-03-06 07:20:54 51°13.638 2°56.016 1.5 253 4 102180 52
2012-03-06 07:20:59 51°13.638 2°56.017 1 303 4 102180 52
2012-03-06 07:21:05 51°13.638 2°56.016 1.4 246 4 102180 52
2012-03-06 07:21:09 51°13.638 2°56.016 1.7 309 4 102180 52
2012-03-06 07:21:14 51°13.638 2°56.016 1.7 249 4 102170 52
2012-03-06 07:21:19 51°13.638 2°56.016 1.2 308 4 102170 52
2012-03-06 07:21:25 51°13.638 2°56.017 0.6 26 4 102180 52
2012-03-06 07:21:29 51°13.638 2°56.016 1.8 302 4 102180 52
2012-03-06 07:21:34 51°13.638 2°56.017 1.1 21 4 102180 51
2012-03-06 07:21:40 51°13.638 2°56.016 1.8 307 4 102180 51
2012-03-06 07:21:44 51°13.638 2°56.017 2.7 21 4 102180 52
2012-03-06 07:21:49 51°13.638 2°56.016 2 308 4 102180 52
2012-03-06 07:21:54 51°13.638 2°56.016 3.4 22 4 102180 52
2012-03-06 07:21:59 51°13.638 2°56.017 3.6 304 4 102180 52
2012-03-06 07:22:04 51°13.638 2°56.017 3.6 18 4 102180 53
2012-03-06 07:22:09 51°13.637 2°56.016 2.4 311 4 102180 53
2012-03-06 07:22:14 51°13.638 2°56.016 1.8 315 4 102180 52
2012-03-06 07:22:20 51°13.637 2°56.016 1.5 303 4 102180 52
2012-03-06 07:22:25 51°13.637 2°56.016 0.7 22 4 102180 53
2012-03-06 07:22:29 51°13.637 2°56.016 2 309 4 102180 53
2012-03-06 07:22:35 51°13.638 2°56.017 1.2 251 4 102180 51
2012-03-06 07:22:40 51°13.637 2°56.016 1.5 307 4 102180 51
2012-03-06 07:22:44 51°13.637 2°56.016 0.6 22 4 102180 51
2012-03-06 07:22:49 51°13.637 2°56.016 1.1 304 4 102180 51
2012-03-06 07:22:54 51°13.637 2°56.016 0.8 21 4 102180 52
2012-03-06 07:23:00 51°13.637 2°56.017 1.1 306 4 102180 52
2012-03-06 07:23:05 51°13.637 2°56.017 0.9 19 4 102180 52
2012-03-06 07:23:09 51°13.637 2°56.017 2.1 307 4 102180 52
2012-03-06 07:23:14 51°13.637 2°56.017 2.6 20 4 102180 52
2012-03-06 07:23:19 51°13.637 2°56.017 2.4 302 4 102180 52
2012-03-06 07:23:25 51°13.637 2°56.017 2.9 19 4 102180 52
2012-03-06 07:23:29 51°13.637 2°56.017 2.7 307 4 102180 52
2012-03-06 07:23:34 51°13.637 2°56.017 3 256 4 102180 53
2012-03-06 07:23:39 51°13.637 2°56.017 2.3 307 4 102180 53
2012-03-06 07:23:44 51°13.637 2°56.017 2.3 253 4 102180 53
2012-03-06 07:23:49 51°13.637 2°56.017 1.8 311 4 102180 53
2012-03-06 07:23:54 51°13.637 2°56.017 1 251 4 102180 53
2012-03-06 07:23:59 51°13.637 2°56.017 2 303 4 102180 53
2012-03-06 07:24:04 51°13.637 2°56.017 3 20 4 102180 52
2012-03-06 07:24:09 51°13.637 2°56.017 3.8 304 4 102180 52
2012-03-06 07:24:14 51°13.637 2°56.017 3.4 244 4 102180 53
2012-03-06 07:24:19 51°13.637 2°56.017 2.7 309 4 102180 53
2012-03-06 07:24:24 51°13.637 2°56.017 2 248 4 102180 52
2012-03-06 07:24:29 51°13.637 2°56.017 2.9 310 4 102180 52
2012-03-06 07:24:34 51°13.637 2°56.017 2.2 247 4 102180 53
2012-03-06 07:24:40 51°13.637 2°56.017 2.7 303 4 102180 53
2012-03-06 07:24:44 51°13.637 2°56.017 2.6 24 4 102180 53
2012-03-06 07:24:49 51°13.637 2°56.017 2.4 309 4 102180 53
2012-03-06 07:24:54 51°13.636 2°56.016 2.5 22 4 102180 52
2012-03-06 07:25:00 51°13.636 2°56.016 1.7 310 4 102180 52
2012-03-06 07:25:05 51°13.637 2°56.016 2.3 252 4 102180 53
2012-03-06 07:25:09 51°13.637 2°56.017 2.9 303 4 102180 53
2012-03-06 07:25:14 51°13.637 2°56.016 2.3 20 4 102180 53
2012-03-06 07:25:20 51°13.637 2°56.016 2.1 308 4 102180 53
2012-03-06 07:25:25 51°13.637 2°56.016 1.2 22 4 102190 52
2012-03-06 07:25:29 51°13.637 2°56.016 1.6 304 4 102190 52
2012-03-06 07:25:34 51°13.638 2°56.017 2.2 25 4 102180 51
2012-03-06 07:25:39 51°13.637 2°56.017 1.7 310 4 102180 51
2012-03-06 07:25:45 51°13.637 2°56.016 2.3 20 4 102190 53
2012-03-06 07:25:49 51°13.637 2°56.016 1.9 303 4 102190 53
2012-03-06 07:25:54 51°13.637 2°56.016 1.6 28 4 102190 53
2012-03-06 07:25:59 51°13.637 2°56.016 1.1 308 4 102190 53
2012-03-06 07:26:05 51°13.637 2°56.016 1.6 255 4 102190 52
2012-03-06 07:26:09 51°13.637 2°56.016 2.3 304 4 102190 52
2012-03-06 07:26:14 51°13.637 2°56.016 2.6 252 4 102180 52
2012-03-06 07:26:19 51°13.637 2°56.016 1.7 303 4 102180 52
2012-03-06 07:26:24 51°13.637 2°56.016 2.1 19 4 102180 53
2012-03-06 07:26:29 51°13.637 2°56.016 1.5 305 4 102180 53
2012-03-06 07:26:34 51°13.637 2°56.016 1.6 18 4 102190 52
2012-03-06 07:26:40 51°13.637 2°56.016 1.1 309 4 102190 52
2012-03-06 07:26:44 51°13.637 2°56.016 0.7 19 4 102190 52
2012-03-06 07:26:49 51°13.637 2°56.016 1 308 4 102190 52
2012-03-06 07:26:54 51°13.637 2°56.016 1.1 22 4 102190 52
2012-03-06 07:27:00 51°13.637 2°56.016 0.7 304 4 102190 52
2012-03-06 07:27:04 51°13.637 2°56.016 0.8 18 4 102190 53
2012-03-06 07:27:09 51°13.637 2°56.016 1.2 311 4 102190 53
2012-03-06 07:27:14 51°13.637 2°56.016 2.1 251 4 102180 52
2012-03-06 07:27:20 51°13.637 2°56.016 2.3 303 4 102180 52
2012-03-06 07:27:25 51°13.637 2°56.016 1.8 253 4 102190 53
2012-03-06 07:27:29 51°13.637 2°56.016 1 307 4 102190 53
2012-03-06 07:27:34 51°13.637 2°56.016 0.9 248 4 102190 53
2012-03-06 07:27:40 51°13.637 2°56.016 0.2 307 4 102190 53
2012-03-06 07:27:45 51°13.637 2°56.016 0.1 23 4 102190 53
2012-03-06 07:27:49 51°13.637 2°56.016 1.3 307 4 102190 53
2012-03-06 07:27:54 51°13.637 2°56.016 0.7 20 4 102190 52
2012-03-06 07:27:59 51°13.637 2°56.016 0.1 307 4 102190 52
2012-03-06 07:28:05 51°13.637 2°56.016 0.1 22 4 102190 52
2012-03-06 07:28:09 51°13.637 2°56.016 0.7 306 4 102190 52
2012-03-06 07:28:14 51°13.637 2°56.016 0.2 23 4 102190 51
2012-03-06 07:28:19 51°13.636 2°56.016 0.1 304 4 102190 51
2012-03-06 07:28:24 51°13.636 2°56.016 0.1 24 4 102190 52
2012-03-06 07:28:29 51°13.637 2°56.016 0.1 302 4 102190 52
2012-03-06 07:28:34 51°13.637 2°56.016 0.1 24 4 102190 52
2012-03-06 07:28:39 51°13.636 2°56.016 0.5 305 4 102190 52
2012-03-06 07:28:44 51°13.636 2°56.015 0.4 249 4 102190 52
2012-03-06 07:28:49 51°13.636 2°56.016 1.2 310 4 102190 52
2012-03-06 07:28:54 51°13.636 2°56.015 1.5 22 4 102190 52
2012-03-06 07:29:00 51°13.636 2°56.016 0.3 304 4 102190 52
2012-03-06 07:29:04 51°13.636 2°56.016 0.1 24 4 102190 52
2012-03-06 07:29:09 51°13.636 2°56.016 0.2 309 4 102190 52
2012-03-06 07:29:14 51°13.636 2°56.016 0.1 21 4 102190 53
2012-03-06 07:29:20 51°13.636 2°56.016 0.1 311 4 102190 53
2012-03-06 07:29:25 51°13.636 2°56.016 0.1 21 4 102190 52
2012-03-06 07:29:29 51°13.636 2°56.016 0.9 307 4 102190 52
2012-03-06 07:29:34 51°13.636 2°56.016 0.3 23 4 102190 52
2012-03-06 07:29:40 51°13.636 2°56.016 0.2 304 4 102190 52
2012-03-06 07:29:45 51°13.636 2°56.016 0.7 256 4 102190 52
2012-03-06 07:29:49 51°13.636 2°56.016 1.2 311 4 102190 52
2012-03-06 07:29:54 51°13.636 2°56.016 2.4 256 4 102190 52
2012-03-06 07:30:00 51°13.636 2°56.016 2.7 307 4 102190 52
2012-03-06 07:30:05 51°13.636 2°56.016 3.1 20 4 102190 52
2012-03-06 07:30:09 51°13.636 2°56.016 2.6 309 4 102190 52
2012-03-06 07:30:14 51°13.637 2°56.016 0.9 19 4.1 102190 52
2012-03-06 07:30:19 51°13.637 2°56.016 1.5 311 4.1 102190 52
2012-03-06 07:30:24 51°13.636 2°56.016 1.2 21 4 102190 53
2012-03-06 07:30:29 51°13.637 2°56.016 1.1 310 4 102190 53
2012-03-06 07:30:34 51°13.636 2°56.016 2.1 23 4 102190 51
2012-03-06 07:30:39 51°13.636 2°56.016 1.4 309 4 102190 51
2012-03-06 07:30:44 51°13.636 2°56.016 1.3 21 4 102190 52
2012-03-06 07:30:49 51°13.636 2°56.016 0.1 304 4 102190 52
2012-03-06 07:30:54 51°13.637 2°56.016 1.5 250 4 102190 52
2012-03-06 07:31:00 51°13.637 2°56.016 1.8 308 4 102190 52
2012-03-06 07:31:04 51°13.637 2°56.016 2.2 253 4 102190 52
2012-03-06 07:31:09 51°13.638 2°56.016 0.5 307 4 102190 52
2012-03-06 07:31:14 51°13.636 2°56.016 0.6 20 4 102190 53
2012-03-06 07:31:20 51°13.637 2°56.016 0.6 307 4 102190 53
2012-03-06 07:31:24 51°13.637 2°56.016 0.1 249 4 102190 52
2012-03-06 07:31:29 51°13.637 2°56.016 0.1 309 4 102190 52
2012-03-06 07:31:34 51°13.637 2°56.016 0.7 255 4 102190 52
2012-03-06 07:31:40 51°13.637 2°56.016 1.1 302 4 102190 52
2012-03-06 07:31:45 51°13.637 2°56.016 1.4 252 4 102190 52
2012-03-06 07:31:49 51°13.637 2°56.016 2.8 309 4 102190 52
2012-03-06 07:31:54 51°13.636 2°56.016 3.3 26 4 102190 52
2012-03-06 07:31:59 51°13.637 2°56.016 2.5 308 4 102190 52
2012-03-06 07:32:05 51°13.637 2°56.016 1.5 22 4 102190 53
2012-03-06 07:32:09 51°13.637 2°56.016 2.9 304 4 102190 53
2012-03-06 07:32:14 51°13.637 2°56.016 2.5 250 4 102190 53
2012-03-06 07:32:19 51°13.637 2°56.016 1 307 4 102190 53
2012-03-06 07:32:25 51°13.637 2°56.016 0.9 23 4 102190 52
2012-03-06 07:32:29 51°13.637 2°56.015 0.7 307 4 102190 52
2012-03-06 07:32:34 51°13.637 2°56.016 1.4 23 4 102190 52
2012-03-06 07:32:39 51°13.637 2°56.015 0.7 306 4 102190 52
2012-03-06 07:32:45 51°13.637 2°56.016 1.1 19 4 102190 52
2012-03-06 07:32:49 51°13.637 2°56.016 1 308 4 102190 52
2012-03-06 07:32:54 51°13.638 2°56.016 1.6 245 4 102190 53
2012-03-06 07:32:59 51°13.638 2°56.016 0.5 302 4 102190 53
2012-03-06 07:33:04 51°13.638 2°56.016 1.2 21 4 102190 52
2012-03-06 07:33:09 51°13.638 2°56.016 2.5 310 4 102190 52
2012-03-06 07:33:14 51°13.638 2°56.016 2.2 249 4 102190 53
2012-03-06 07:33:20 51°13.638 2°56.016 2.1 305 4 102190 53
2012-03-06 07:33:24 51°13.638 2°56.016 1 20 4 102200 53
2012-03-06 07:33:29 51°13.638 2°56.016 1.3 304 4 102200 53
2012-03-06 07:33:34 51°13.638 2°56.016 1.1 26 4.1 102190 52
2012-03-06 07:33:40 51°13.638 2°56.016 1 303 4.1 102190 52
2012-03-06 07:33:45 51°13.638 2°56.016 1.1 26 4 102190 52
2012-03-06 07:33:49 51°13.638 2°56.016 1.1 311 4 102190 52
2012-03-06 07:33:54 51°13.638 2°56.016 0.5 21 4 102190 53
2012-03-06 07:34:00 51°13.638 2°56.017 0.6 304 4 102190 53
2012-03-06 07:34:05 51°13.638 2°56.017 1.3 18 4 102190 52
2012-03-06 07:34:09 51°13.638 2°56.016 2.2 301 4 102190 52
2012-03-06 07:34:14 51°13.638 2°56.016 1.3 21 4 102190 52
2012-03-06 07:34:19 51°13.638 2°56.017 1.2 309 4 102190 52
2012-03-06 07:34:25 51°13.639 2°56.017 1.2 249 4 102190 52
2012-03-06 07:34:29 51°13.639 2°56.017 1.5 309 4 102190 52
2012-03-06 07:34:34 51°13.638 2°56.017 1.9 250 4 102190 51
2012-03-06 07:34:39 51°13.638 2°56.017 1.4 303 4 102190 51
2012-03-06 07:34:45 51°13.638 2°56.016 0.9 19 4 102200 52
2012-03-06 07:34:49 51°13.638 2°56.016 0.7 308 4 102200 52
2012-03-06 07:34:54 51°13.638 2°56.016 0.7 21 4 102190 52
2012-03-06 07:34:59 51°13.638 2°56.016 1.2 311 4 102190 52
2012-03-06 07:35:05 51°13.638 2°56.016 1.8 254 4 102190 52
2012-03-06 07:35:09 51°13.639 2°56.016 0.7 309 4 102190 52
2012-03-06 07:35:14 51°13.638 2°56.016 0.2 249 4 102200 52
2012-03-06 07:35:20 51°13.638 2°56.016 1.2 310 4 102200 52
2012-03-06 07:35:24 51°13.638 2°56.016 1.4 255 4 102200 52
2012-03-06 07:35:29 51°13.638 2°56.016 2.7 311 4 102200 52
2012-03-06 07:35:34 51°13.638 2°56.016 1.4 248 4.1 102200 52
2012-03-06 07:35:39 51°13.638 2°56.016 1.8 307 4.1 102200 52
2012-03-06 07:35:44 51°13.638 2°56.016 1.1 23 4.1 102190 53
2012-03-06 07:35:49 51°13.638 2°56.016 1.8 301 4.1 102190 53
2012-03-06 07:35:54 51°13.638 2°56.016 1.1 19 4.1 102200 52
2012-03-06 07:36:00 51°13.638 2°56.016 0.5 309 4.1 102200 52
2012-03-06 07:36:05 51°13.638 2°56.016 1.1 22 4.1 102200 53
2012-03-06 07:36:09 51°13.638 2°56.016 0.3 302 4.1 102200 53
2012-03-06 07:36:14 51°13.638 2°56.016 0.9 19 4.1 102190 52
2012-03-06 07:36:20 51°13.637 2°56.015 0.8 309 4.1 102190 52
2012-03-06 07:36:24 51°13.638 2°56.016 1.4 259 4.1 102200 52
2012-03-06 07:36:29 51°13.637 2°56.015 0.2 309 4.1 102200 52
2012-03-06 07:36:34 51°13.638 2°56.016 1.3 20 4.1 102200 52
2012-03-06 07:36:39 51°13.637 2°56.015 0.2 306 4.1 102200 52
2012-03-06 07:36:45 51°13.637 2°56.016 0.1 17 4.1 102200 53
2012-03-06 07:36:49 51°13.637 2°56.016 0.1 302 4.1 102200 53
2012-03-06 07:36:54 51°13.637 2°56.016 0.1 324 4.1 102200 51
2012-03-06 07:36:59 51°13.637 2°56.016 0.1 307 4.1 102200 51
2012-03-06 07:37:04 51°13.638 2°56.016 0.1 249 4.1 102190 52
2012-03-06 07:37:09 51°13.638 2°56.016 -999 304 4.1 102190 52
2012-03-06 07:37:14 51°13.637 2°56.016 0.1 258 4.1 102190 52
2012-03-06 07:37:19 51°13.637 2°56.016 0.1 306 4.1 102190 52
2012-03-06 07:37:24 51°13.637 2°56.016 0.1 22 4.1 102200 52
2012-03-06 07:37:29 51°13.637 2°56.016 0.1 307 4.1 102200 52
2012-03-06 07:37:34 51°13.637 2°56.016 0.6 261 4.1 102200 52
2012-03-06 07:37:39 51°13.636 2°56.016 2.1 310 4.1 102200 52
2012-03-06 07:37:44 51°13.636 2°56.015 2.6 22 4.1 102200 52
2012-03-06 07:37:49 51°13.636 2°56.015 2.5 303 4.1 102200 52
2012-03-06 07:37:54 51°13.636 2°56.015 1.2 19 4.1 102200 53
2012-03-06 07:37:59 51°13.636 2°56.015 1.4 309 4.1 102200 53
2012-03-06 07:38:05 51°13.636 2°56.016 1.5 22 4.1 102200 52
2012-03-06 07:38:09 51°13.637 2°56.016 1.4 309 4.1 102200 52
2012-03-06 07:38:14 51°13.637 2°56.016 1.4 250 4.1 102200 53
2012-03-06 07:38:20 51°13.637 2°56.016 1.8 308 4.1 102200 53
2012-03-06 07:38:24 51°13.637 2°56.016 2.3 256 4.1 102200 52
2012-03-06 07:38:29 51°13.637 2°56.016 2 304 4.1 102200 52
2012-03-06 07:38:34 51°13.636 2°56.016 1.5 244 4.1 102200 51
2012-03-06 07:38:40 51°13.636 2°56.016 1.9 310 4.1 102200 51
2012-03-06 07:38:45 51°13.637 2°56.016 1.3 21 4.1 102200 53
2012-03-06 07:38:49 51°13.637 2°56.016 1.5 302 4.1 102200 53
2012-03-06 07:38:54 51°13.637 2°56.016 1.6 19 4.1 102200 51
2012-03-06 07:38:59 51°13.637 2°56.016 2.2 309 4.1 102200 51
2012-03-06 07:39:05 51°13.637 2°56.016 1.3 20 4.1 102200 51
2012-03-06 07:39:09 51°13.637 2°56.016 0.5 304 4.1 102200 51
2012-03-06 07:39:14 51°13.637 2°56.016 0.3 20 4.1 102200 52
2012-03-06 07:39:19 51°13.637 2°56.016 2.1 309 4.1 102200 52
2012-03-06 07:39:25 51°13.637 2°56.016 1.4 248 4.1 102200 52
2012-03-06 07:39:29 51°13.637 2°56.016 0.2 307 4.1 102200 52
2012-03-06 07:39:34 51°13.637 2°56.016 0.1 26 4.1 102200 53
2012-03-06 07:39:39 51°13.637 2°56.016 0.1 307 4.1 102200 53
2012-03-06 07:39:44 51°13.637 2°56.016 0.3 251 4.1 102200 52
2012-03-06 07:39:49 51°13.637 2°56.016 0.5 309 4.1 102200 52
2012-03-06 07:39:54 51°13.637 2°56.017 0.3 252 4.1 102200 52
2012-03-06 07:39:59 51°13.637 2°56.016 0.2 302 4.1 102200 52
2012-03-06 07:40:04 51°13.636 2°56.016 0.4 21 4.1 102200 53
2012-03-06 07:40:09 51°13.637 2°56.016 0.8 309 4.1 102200 53
2012-03-06 07:40:14 51°13.637 2°56.016 0.3 249 4.1 102200 52
2012-03-06 07:40:20 51°13.637 2°56.016 0.1 302 4.1 102200 52
2012-03-06 07:40:24 51°13.637 2°56.016 0.6 19 4.1 102200 51
2012-03-06 07:40:29 51°13.637 2°56.016 0.6 304 4.1 102200 51
2012-03-06 07:40:34 51°13.637 2°56.016 0.4 253 4.1 102200 52
2012-03-06 07:40:40 51°13.637 2°56.017 0.3 311 4.1 102200 52
2012-03-06 07:40:44 51°13.637 2°56.017 0.1 21 4.1 102200 52
2012-03-06 07:40:49 51°13.637 2°56.016 1.2 307 4.1 102200 52
2012-03-06 07:40:54 51°13.637 2°56.016 1.2 251 4.1 102200 52
2012-03-06 07:40:59 51°13.637 2°56.016 1.3 304 4.1 102200 52
2012-03-06 07:41:05 51°13.637 2°56.016 0.6 25 4.1 102200 52
2012-03-06 07:41:09 51°13.637 2°56.016 1.1 309 4.1 102200 52
2012-03-06 07:41:14 51°13.637 2°56.016 1.5 254 4.1 102200 53
2012-03-06 07:41:19 51°13.637 2°56.016 1.8 311 4.1 102200 53
2012-03-06 07:41:25 51°13.637 2°56.016 0.7 21 4.1 102200 52
2012-03-06 07:41:29 51°13.637 2°56.016 0.5 312 4.1 102200 52
2012-03-06 07:41:34 51°13.637 2°56.016 1.6 246 4.1 102200 51
2012-03-06 07:41:39 51°13.638 2°56.016 1 311 4.1 102200 51
2012-03-06 07:41:44 51°13.637 2°56.016 1 257 4.1 102200 52
2012-03-06 07:41:49 51°13.637 2°56.016 3.1 310 4.1 102200 52
2012-03-06 07:41:54 51°13.637 2°56.016 2.6 255 4.1 102210 52
2012-03-06 07:41:59 51°13.637 2°56.016 1.8 302 4.1 102210 52
2012-03-06 07:42:04 51°13.637 2°56.016 1.1 21 4.1 102200 53
2012-03-06 07:42:09 51°13.637 2°56.016 0.2 324 4.1 102200 53
2012-03-06 07:42:14 51°13.637 2°56.016 0.1 315 4.1 102210 53
2012-03-06 07:42:19 51°13.637 2°56.016 2.8 309 4.1 102210 53
2012-03-06 07:42:24 51°13.637 2°56.016 2.2 315 4.1 102210 52
2012-03-06 07:42:29 51°13.637 2°56.016 0.9 283 4.1 102210 52
2012-03-06 07:42:34 51°13.636 2°56.016 1.3 21 4.1 102200 53
2012-03-06 07:42:40 51°13.636 2°56.016 1.2 309 4.1 102200 53
2012-03-06 07:42:44 51°13.636 2°56.016 1.1 21 4.1 102200 53
2012-03-06 07:42:49 51°13.636 2°56.016 0.9 302 4.1 102200 53
2012-03-06 07:42:54 51°13.636 2°56.016 0.8 21 4.1 102200 51
2012-03-06 07:43:00 51°13.636 2°56.016 1 304 4.1 102200 51
2012-03-06 07:43:05 51°13.637 2°56.016 2.7 24 4.1 102200 52
2012-03-06 07:43:09 51°13.636 2°56.016 2.8 303 4.1 102200 52
2012-03-06 07:43:14 51°13.636 2°56.016 2 23 4.1 102200 53
2012-03-06 07:43:20 51°13.636 2°56.016 1.5 302 4.1 102200 53
2012-03-06 07:43:25 51°13.637 2°56.016 1.7 21 4.1 102210 53
2012-03-06 07:43:29 51°13.637 2°56.016 1 309 4.1 102210 53
2012-03-06 07:43:34 51°13.637 2°56.016 0.5 22 4.1 102200 53
2012-03-06 07:43:39 51°13.637 2°56.016 1.3 303 4.1 102200 53
2012-03-06 07:43:45 51°13.637 2°56.016 1.9 21 4.1 102210 52
2012-03-06 07:43:49 51°13.636 2°56.015 0.5 302 4.1 102210 52
2012-03-06 07:43:54 51°13.636 2°56.015 0.7 25 4.1 102210 52
2012-03-06 07:43:59 51°13.636 2°56.015 0.9 309 4.1 102210 52
2012-03-06 07:44:04 51°13.636 2°56.015 1.5 251 4.1 102210 53
2012-03-06 07:44:09 51°13.636 2°56.015 0.3 309 4.1 102210 53
2012-03-06 07:44:14 51°13.636 2°56.015 0.4 20 4.1 102210 52
2012-03-06 07:44:19 51°13.637 2°56.016 0.3 310 4.1 102210 52
2012-03-06 07:44:24 51°13.637 2°56.016 1.1 250 4.1 102200 52
2012-03-06 07:44:29 51°13.637 2°56.016 1.6 286 4.1 102200 52
2012-03-06 07:44:34 51°13.636 2°56.015 1.6 21 4.1 102210 52
2012-03-06 07:44:40 51°13.636 2°56.015 1 306 4.1 102210 52
2012-03-06 07:44:44 51°13.636 2°56.015 0.4 25 4.1 102210 52
2012-03-06 07:44:49 51°13.637 2°56.016 0.2 307 4.1 102210 52
2012-03-06 07:44:54 51°13.636 2°56.015 0.1 23 4.1 102210 52
2012-03-06 07:45:00 51°13.636 2°56.015 1.2 307 4.1 102210 52
2012-03-06 07:45:04 51°13.636 2°56.015 0.5 250 4.1 102210 52
2012-03-06 07:45:09 51°13.637 2°56.016 1.4 309 4.1 102210 52
2012-03-06 07:45:14 51°13.636 2°56.015 1.6 251 4.1 102210 52
2012-03-06 07:45:20 51°13.636 2°56.016 1.2 309 4.1 102210 52
2012-03-06 07:45:25 51°13.637 2°56.016 1.2 251 4.1 102210 53
2012-03-06 07:45:29 51°13.637 2°56.016 0.3 283 4.1 102210 53
2012-03-06 07:45:34 51°13.637 2°56.016 1.1 21 4.1 102210 53
2012-03-06 07:45:39 51°13.636 2°56.016 1.4 305 4.1 102210 53
2012-03-06 07:45:45 51°13.636 2°56.016 0.8 20 4.1 102210 52
2012-03-06 07:45:49 51°13.636 2°56.016 1 302 4.1 102210 52
2012-03-06 07:45:54 51°13.636 2°56.016 1.5 251 4.1 102210 53
2012-03-06 07:45:59 51°13.636 2°56.016 2.3 303 4.1 102210 53
2012-03-06 07:46:05 51°13.637 2°56.016 2.4 21 4.1 102210 53
2012-03-06 07:46:09 51°13.637 2°56.015 1.4 307 4.1 102210 53
2012-03-06 07:46:14 51°13.636 2°56.015 1.7 22 4.1 102210 53
2012-03-06 07:46:19 51°13.637 2°56.015 1.2 309 4.1 102210 53
2012-03-06 07:46:24 51°13.637 2°56.015 0.7 22 4.1 102210 53
2012-03-06 07:46:29 51°13.637 2°56.015 0.8 308 4.1 102210 53
2012-03-06 07:46:34 51°13.637 2°56.015 1 246 4.1 102210 53
2012-03-06 07:46:39 51°13.637 2°56.015 0.9 304 4.1 102210 53
2012-03-06 07:46:44 51°13.636 2°56.015 0.9 251 4.1 102210 52
2012-03-06 07:46:49 51°13.636 2°56.016 0.8 286 4.1 102210 52
2012-03-06 07:46:54 51°13.637 2°56.016 1.2 251 4.1 102210 51
2012-03-06 07:46:59 51°13.637 2°56.016 0.3 307 4.1 102210 51
2012-03-06 07:47:04 51°13.637 2°56.016 0.2 251 4.1 102210 53
2012-03-06 07:47:09 51°13.636 2°56.016 0.3 304 4.1 102210 53
2012-03-06 07:47:14 51°13.637 2°56.016 0.5 18 4.1 102210 52
2012-03-06 07:47:20 51°13.637 2°56.016 0.7 301 4.1 102210 52
2012-03-06 07:47:25 51°13.637 2°56.016 0.5 251 4.2 102210 53
2012-03-06 07:47:29 51°13.637 2°56.016 1.5 307 4.2 102210 53
2012-03-06 07:47:34 51°13.636 2°56.016 1.2 256 4.1 102210 52
2012-03-06 07:47:39 51°13.636 2°56.016 1.5 308 4.1 102210 52
2012-03-06 07:47:44 51°13.637 2°56.016 2.4 253 4.1 102210 52
2012-03-06 07:47:49 51°13.637 2°56.016 1.1 309 4.1 102210 52
2012-03-06 07:47:54 51°13.637 2°56.016 1.5 26 4.2 102210 53
2012-03-06 07:47:59 51°13.637 2°56.016 1.6 308 4.2 102210 53
2012-03-06 07:48:04 51°13.637 2°56.016 2.3 22 4.1 102210 53
2012-03-06 07:48:09 51°13.637 2°56.016 2.6 309 4.1 102210 53
2012-03-06 07:48:14 51°13.637 2°56.016 2.6 20 4.1 102210 52
2012-03-06 07:48:19 51°13.637 2°56.016 2.3 308 4.1 102210 52
2012-03-06 07:48:24 51°13.638 2°56.017 2.7 252 4.1 102210 52
2012-03-06 07:48:29 51°13.637 2°56.016 2.5 309 4.1 102210 52
2012-03-06 07:48:34 51°13.637 2°56.016 3.1 22 4.1 102210 52
2012-03-06 07:48:39 51°13.637 2°56.016 1.9 309 4.1 102210 52
2012-03-06 07:48:44 51°13.637 2°56.016 2.4 21 4.1 102210 52
2012-03-06 07:48:49 51°13.638 2°56.016 2 304 4.1 102210 52
2012-03-06 07:48:54 51°13.638 2°56.016 2.2 20 4.1 102210 52
2012-03-06 07:48:59 51°13.637 2°56.016 2 310 4.1 102210 52
2012-03-06 07:49:04 51°13.637 2°56.016 1.4 253 4.2 102210 52
2012-03-06 07:49:09 51°13.637 2°56.015 1.8 307 4.2 102210 52
2012-03-06 07:49:14 51°13.637 2°56.015 0.7 253 4.1 102220 53
2012-03-06 07:49:19 51°13.637 2°56.015 0.7 304 4.1 102220 53
2012-03-06 07:49:24 51°13.637 2°56.015 0.3 250 4.1 102220 53
2012-03-06 07:49:29 51°13.637 2°56.015 1.6 305 4.1 102220 53
2012-03-06 07:49:34 51°13.637 2°56.015 1.5 18 4.1 102210 51
2012-03-06 07:49:39 51°13.637 2°56.016 0.8 310 4.1 102210 51
2012-03-06 07:49:44 51°13.637 2°56.016 0.5 248 4.1 102220 52
2012-03-06 07:49:49 51°13.637 2°56.016 1.1 307 4.1 102220 52
2012-03-06 07:49:54 51°13.637 2°56.016 0.3 20 4.1 102210 52
2012-03-06 07:49:59 51°13.638 2°56.016 0.7 284 4.1 102210 52
2012-03-06 07:50:04 51°13.638 2°56.016 0.3 27 4.2 102210 53
2012-03-06 07:50:09 51°13.637 2°56.016 0.7 306 4.2 102210 53
2012-03-06 07:50:14 51°13.637 2°56.016 1.3 19 4.1 102210 52
2012-03-06 07:50:19 51°13.637 2°56.016 1 287 4.1 102210 52
2012-03-06 07:50:24 51°13.637 2°56.016 0.9 251 4.2 102210 52
2012-03-06 07:50:29 51°13.637 2°56.016 2.3 308 4.2 102210 52
2012-03-06 07:50:34 51°13.637 2°56.016 1.9 19 4.1 102210 53
2012-03-06 07:50:39 51°13.637 2°56.015 2.6 310 4.1 102210 53
2012-03-06 07:50:44 51°13.638 2°56.016 2.2 19 4.2 102210 52
2012-03-06 07:50:49 51°13.638 2°56.017 1.7 303 4.2 102210 52
2012-03-06 07:50:54 51°13.638 2°56.017 1.8 20 4.2 102220 52
2012-03-06 07:50:59 51°13.638 2°56.017 1.7 309 4.2 102220 52
2012-03-06 07:51:04 51°13.638 2°56.018 1.5 22 4.2 102210 52
2012-03-06 07:51:09 51°13.638 2°56.017 0.6 311 4.2 102210 52
2012-03-06 07:51:14 51°13.638 2°56.017 1.1 249 4.2 102210 52
2012-03-06 07:51:19 51°13.638 2°56.017 1.2 307 4.2 102210 52
2012-03-06 07:51:24 51°13.638 2°56.016 1.6 255 4.2 102210 51
2012-03-06 07:51:29 51°13.638 2°56.016 2.3 310 4.2 102210 51
2012-03-06 07:51:34 51°13.638 2°56.016 2.4 256 4.2 102210 53
2012-03-06 07:51:39 51°13.638 2°56.016 2.7 309 4.2 102210 53
2012-03-06 07:51:44 51°13.638 2°56.016 2.1 250 4.2 102210 52
2012-03-06 07:51:49 51°13.637 2°56.016 1.7 304 4.2 102210 52
2012-03-06 07:51:54 51°13.637 2°56.015 2 251 4.2 102210 53
2012-03-06 07:51:59 51°13.636 2°56.015 2.4 302 4.2 102210 53
2012-03-06 07:52:04 51°13.636 2°56.015 2.3 256 4.2 102210 51
2012-03-06 07:52:09 51°13.637 2°56.015 1.1 304 4.2 102210 51
2012-03-06 07:52:14 51°13.637 2°56.015 1.4 20 4.2 102210 51
2012-03-06 07:52:19 51°13.637 2°56.016 1 286 4.2 102210 51
2012-03-06 07:52:24 51°13.637 2°56.016 1 20 4.2 102210 52
2012-03-06 07:52:29 51°13.637 2°56.016 1.3 309 4.2 102210 52
2012-03-06 07:52:34 51°13.638 2°56.016 1.1 19 4.2 102210 52
2012-03-06 07:52:39 51°13.637 2°56.016 0.3 279 4.2 102210 52
2012-03-06 07:52:44 51°13.637 2°56.016 0.4 19 4.2 102210 52
2012-03-06 07:52:49 51°13.637 2°56.015 0.1 307 4.2 102210 52
2012-03-06 07:52:54 51°13.637 2°56.015 0.1 248 4.2 102210 52
2012-03-06 07:52:59 51°13.637 2°56.015 0.1 304 4.2 102210 52
2012-03-06 07:53:04 51°13.637 2°56.015 0.3 20 4.2 102210 52
2012-03-06 07:53:09 51°13.637 2°56.015 0.3 302 4.2 102210 52
2012-03-06 07:53:14 51°13.637 2°56.016 1.5 21 4.2 102210 52
2012-03-06 07:53:19 51°13.637 2°56.016 0.5 302 4.2 102210 52
2012-03-06 07:53:24 51°13.637 2°56.016 1.1 249 4.2 102210 52
2012-03-06 07:53:29 51°13.637 2°56.016 0.5 304 4.2 102210 52
2012-03-06 07:53:34 51°13.637 2°56.016 0.7 247 4.2 102210 52
2012-03-06 07:53:39 51°13.637 2°56.016 1 306 4.2 102210 52
2012-03-06 07:53:44 51°13.637 2°56.016 1.4 253 4.2 102210 52
2012-03-06 07:53:49 51°13.637 2°56.016 1.3 311 4.2 102210 52
2012-03-06 07:53:54 51°13.637 2°56.016 0.3 21 4.2 102210 52
2012-03-06 07:53:59 51°13.637 2°56.016 0.1 307 4.2 102210 52
2012-03-06 07:54:04 51°13.637 2°56.016 1.1 250 4.2 102210 52
2012-03-06 07:54:09 51°13.636 2°56.016 1.3 302 4.2 102210 52
2012-03-06 07:54:14 51°13.637 2°56.016 1.2 21 4.2 102210 52
2012-03-06 07:54:19 51°13.637 2°56.016 1 310 4.2 102210 52
2012-03-06 07:54:24 51°13.637 2°56.016 0.7 20 4.2 102210 52
2012-03-06 07:54:29 51°13.636 2°56.016 0.8 312 4.2 102210 52
2012-03-06 07:54:34 51°13.637 2°56.016 1.1 256 4.2 102210 53
2012-03-06 07:54:39 51°13.636 2°56.016 1.2 305 4.2 102210 53
2012-03-06 07:54:44 51°13.636 2°56.016 2.6 23 4.2 102210 52
2012-03-06 07:54:49 51°13.636 2°56.016 3.3 302 4.2 102210 52
2012-03-06 07:54:54 51°13.636 2°56.016 2.9 20 4.2 102210 52
2012-03-06 07:54:59 51°13.636 2°56.016 4 309 4.2 102210 52
2012-03-06 07:55:04 51°13.637 2°56.016 3.6 249 4.2 102210 52
2012-03-06 07:55:09 51°13.637 2°56.016 4.3 304 4.2 102210 52
2012-03-06 07:55:14 51°13.637 2°56.016 3.7 24 4.2 102210 53
2012-03-06 07:55:19 51°13.636 2°56.016 4 305 4.2 102210 53
2012-03-06 07:55:24 51°13.636 2°56.015 3.7 247 4.2 102210 53
2012-03-06 07:55:29 51°13.636 2°56.016 3.5 304 4.2 102210 53
2012-03-06 07:55:34 51°13.635 2°56.016 3.2 20 4.2 102220 52
2012-03-06 07:55:39 51°13.635 2°56.016 2.7 310 4.2 102220 52
2012-03-06 07:55:44 51°13.635 2°56.016 3.9 21 4.2 102220 52
2012-03-06 07:55:49 51°13.635 2°56.016 2.9 308 4.2 102220 52
2012-03-06 07:55:54 51°13.635 2°56.016 2.8 20 4.2 102220 53
2012-03-06 07:55:59 51°13.635 2°56.016 2.6 305 4.2 102220 53
2012-03-06 07:56:04 51°13.635 2°56.016 1.7 18 4.2 102210 52
2012-03-06 07:56:09 51°13.635 2°56.016 0.8 306 4.2 102210 52
2012-03-06 07:56:14 51°13.635 2°56.016 1.5 26 4.2 102220 52
2012-03-06 07:56:19 51°13.634 2°56.016 2.2 303 4.2 102220 52
2012-03-06 07:56:24 51°13.634 2°56.016 2.2 26 4.2 102220 53
2012-03-06 07:56:29 51°13.634 2°56.015 1 306 4.2 102220 53
2012-03-06 07:56:34 51°13.634 2°56.015 1.1 18 4.2 102210 53
2012-03-06 07:56:39 51°13.634 2°56.016 1.7 309 4.2 102210 53
2012-03-06 07:56:44 51°13.634 2°56.016 2.6 21 4.2 102210 52
2012-03-06 07:56:49 51°13.634 2°56.015 1.7 309 4.2 102210 52
2012-03-06 07:56:53 51°13.634 2°56.015 0.7 20 4.2 102210 52
2012-03-06 07:56:59 51°13.635 2°56.015 0.2 287 4.2 102210 52
2012-03-06 07:57:04 51°13.635 2°56.013 0.6 249 4.2 102220 52
2012-03-06 07:57:09 51°13.636 2°56.011 2 309 4.2 102220 52
2012-03-06 07:57:14 51°13.637 2°56.006 2.5 259 4.2 102210 52
2012-03-06 07:57:19 51°13.638 2°56.001 3.3 281 4.2 102210 52
2012-03-06 07:57:24 51°13.64 2°55.994 2.6 262 4.2 102220 51
2012-03-06 07:57:29 51°13.643 2°55.986 2 308 4.2 102220 51
2012-03-06 07:57:34 51°13.645 2°55.977 2.2 262 4.2 102210 51
2012-03-06 07:57:39 51°13.648 2°55.967 2.9 310 4.2 102210 51
2012-03-06 07:57:44 51°13.65 2°55.956 2.2 260 4.2 102220 53
2012-03-06 07:57:49 51°13.653 2°55.945 0.9 301 4.2 102220 53
2012-03-06 07:57:54 51°13.655 2°55.934 2.1 259 4.2 102220 53
2012-03-06 07:57:59 51°13.658 2°55.924 1.5 311 4.2 102220 53
2012-03-06 07:58:04 51°13.66 2°55.913 1 29 4.2 102220 52
2012-03-06 07:58:09 51°13.662 2°55.902 1.8 308 4.2 102220 52
2012-03-06 07:58:14 51°13.664 2°55.894 2.5 262 4.2 102220 53
2012-03-06 07:58:19 51°13.666 2°55.887 1.2 309 4.2 102220 53
2012-03-06 07:58:24 51°13.667 2°55.883 0.7 266 4.2 102220 52
2012-03-06 07:58:29 51°13.668 2°55.88 1.4 310 4.2 102220 52
2012-03-06 07:58:33 51°13.668 2°55.878 1.1 248 4.2 102220 53
2012-03-06 07:58:39 51°13.669 2°55.876 1.3 307 4.2 102220 53
2012-03-06 07:58:44 51°13.67 2°55.872 0.9 249 4.2 102220 53
2012-03-06 07:58:49 51°13.671 2°55.868 1.8 308 4.2 102220 53
2012-03-06 07:58:54 51°13.672 2°55.863 2.1 22 4.2 102220 53
2012-03-06 07:58:59 51°13.673 2°55.857 1.1 309 4.2 102220 53
2012-03-06 07:59:04 51°13.674 2°55.851 1 250 4.2 102220 52
2012-03-06 07:59:09 51°13.676 2°55.844 0.4 311 4.2 102220 52
2012-03-06 07:59:14 51°13.677 2°55.837 0.7 270 4.2 102220 53
2012-03-06 07:59:19 51°13.679 2°55.829 1.5 55 4.2 102220 53
2012-03-06 07:59:24 51°13.682 2°55.821 1.3 23 4.2 102220 53
2012-03-06 07:59:29 51°13.684 2°55.813 1.5 59 4.2 102220 53
2012-03-06 07:59:34 51°13.687 2°55.805 1.8 19 4.2 102220 52
2012-03-06 07:59:39 51°13.69 2°55.796 2 55 4.2 102220 52
2012-03-06 07:59:44 51°13.693 2°55.788 2.1 20 4.2 102220 52
2012-03-06 07:59:49 51°13.696 2°55.779 2.1 52 4.2 102220 52
2012-03-06 07:59:54 51°13.7 2°55.77 2.7 22 4.2 102220 53
2012-03-06 07:59:59 51°13.703 2°55.761 3.2 310 4.2 102220 53
2012-03-06 08:00:04 51°13.707 2°55.753 1.9 267 4.2 102220 52
2012-03-06 08:00:09 51°13.711 2°55.745 2.5 307 4.2 102220 52
2012-03-06 08:00:14 51°13.715 2°55.736 3.3 30 4.2 102220 52
2012-03-06 08:00:19 51°13.719 2°55.728 3.1 52 4.2 102220 52
2012-03-06 08:00:24 51°13.723 2°55.719 3.5 27 4.2 102220 53
2012-03-06 08:00:29 51°13.728 2°55.711 3.6 57 4.2 102220 53
2012-03-06 08:00:34 51°13.733 2°55.703 2.8 23 4.2 102220 53
2012-03-06 08:00:39 51°13.738 2°55.695 2.9 51 4.2 102220 53
2012-03-06 08:00:44 51°13.743 2°55.688 3.3 325 4.2 102220 52
2012-03-06 08:00:49 51°13.749 2°55.68 2.7 56 4.2 102220 52
2012-03-06 08:00:54 51°13.754 2°55.673 2.5 21 4.2 102230 52
2012-03-06 08:00:59 51°13.761 2°55.667 3.3 57 4.2 102230 52
2012-03-06 08:01:04 51°13.767 2°55.661 3.1 22 4.2 102220 52
2012-03-06 08:01:09 51°13.773 2°55.654 4 50 4.2 102220 52
2012-03-06 08:01:14 51°13.779 2°55.649 3.7 21 4.2 102220 53
2012-03-06 08:01:19 51°13.786 2°55.645 3.6 57 4.2 102220 53
2012-03-06 08:01:24 51°13.793 2°55.64 3.8 21 4.2 102220 53
2012-03-06 08:01:29 51°13.8 2°55.636 3.6 57 4.2 102220 53
2012-03-06 08:01:34 51°13.808 2°55.634 3.1 18 4.2 102230 53
2012-03-06 08:01:39 51°13.816 2°55.631 3.4 81 4.2 102230 53
2012-03-06 08:01:44 51°13.824 2°55.628 2.8 23 4.2 102230 52
2012-03-06 08:01:49 51°13.831 2°55.626 3.4 58 4.2 102230 52
2012-03-06 08:01:54 51°13.839 2°55.625 4 27 4.2 102230 52
2012-03-06 08:01:59 51°13.848 2°55.625 4 56 4.2 102230 52
2012-03-06 08:02:04 51°13.856 2°55.624 3.6 21 4.2 102230 53
2012-03-06 08:02:09 51°13.864 2°55.624 4.7 55 4.2 102230 53
2012-03-06 08:02:14 51°13.873 2°55.624 5.2 21 4.2 102230 52
2012-03-06 08:02:19 51°13.881 2°55.624 6.4 52 4.2 102230 52
2012-03-06 08:02:24 51°13.889 2°55.625 5.1 20 4.3 102230 53
2012-03-06 08:02:29 51°13.896 2°55.626 4.3 80 4.3 102230 53
2012-03-06 08:02:34 51°13.904 2°55.628 4.3 20 4.3 102230 53
2012-03-06 08:02:39 51°13.911 2°55.63 3.6 56 4.3 102230 53
2012-03-06 08:02:44 51°13.917 2°55.633 3.4 22 4.2 102230 52
2012-03-06 08:02:49 51°13.923 2°55.636 3 52 4.2 102230 52
2012-03-06 08:02:54 51°13.929 2°55.639 4 24 4.2 102230 50
2012-03-06 08:02:59 51°13.935 2°55.643 2.5 53 4.2 102230 50
2012-03-06 08:03:04 51°13.94 2°55.646 2.6 21 4.3 102230 53
2012-03-06 08:03:09 51°13.945 2°55.65 1.6 55 4.3 102230 53
2012-03-06 08:03:14 51°13.949 2°55.654 2.7 27 4.4 102230 52
2012-03-06 08:03:19 51°13.954 2°55.657 2.8 49 4.4 102230 52
2012-03-06 08:03:24 51°13.958 2°55.661 4.4 25 4.4 102230 52
2012-03-06 08:03:29 51°13.961 2°55.663 3.2 49 4.4 102230 52
2012-03-06 08:03:34 51°13.962 2°55.665 2.7 19 4.5 102230 54
2012-03-06 08:03:39 51°13.964 2°55.667 1.6 50 4.5 102230 54
2012-03-06 08:03:44 51°13.966 2°55.668 1.7 26 4.5 102230 54
2012-03-06 08:03:49 51°13.966 2°55.668 1.4 57 4.5 102230 54
2012-03-06 08:03:54 51°13.967 2°55.668 2.2 19 4.5 102230 53
2012-03-06 08:03:59 51°13.967 2°55.666 2.3 43 4.5 102230 53
2012-03-06 08:04:04 51°13.966 2°55.663 1.3 42 4.5 102230 53
2012-03-06 08:04:09 51°13.966 2°55.659 2 28 4.5 102230 53
2012-03-06 08:04:14 51°13.966 2°55.653 1.1 20 4.5 102230 53
2012-03-06 08:04:19 51°13.966 2°55.647 1.8 15 4.5 102230 53
2012-03-06 08:04:24 51°13.968 2°55.641 1.8 8 4.5 102230 52
2012-03-06 08:04:29 51°13.969 2°55.633 1.6 2 4.5 102230 52
2012-03-06 08:04:34 51°13.972 2°55.626 2 359 4.5 102230 53
2012-03-06 08:04:39 51°13.975 2°55.617 2.2 350 4.5 102230 53
2012-03-06 08:04:44 51°13.979 2°55.609 2.8 347 4.5 102220 53
2012-03-06 08:04:49 51°13.983 2°55.6 3.4 344 4.5 102220 53
2012-03-06 08:04:54 51°13.989 2°55.591 3.6 351 4.5 102220 51
2012-03-06 08:04:59 51°13.994 2°55.58 4.3 352 4.5 102220 51
2012-03-06 08:05:04 51°14 2°55.57 4 353 4.5 102230 51
2012-03-06 08:05:09 51°14.006 2°55.559 4 348 4.5 102230 51
2012-03-06 08:05:14 51°14.013 2°55.549 3.5 348 4.5 102230 52
2012-03-06 08:05:19 51°14.021 2°55.538 4.9 349 4.5 102230 52
2012-03-06 08:05:24 51°14.029 2°55.528 4.7 353 4.5 102230 51
2012-03-06 08:05:29 51°14.037 2°55.518 4.6 350 4.5 102230 51
2012-03-06 08:05:34 51°14.046 2°55.508 4.8 348 4.5 102230 50
2012-03-06 08:05:39 51°14.055 2°55.498 4.6 346 4.5 102230 50
2012-03-06 08:05:44 51°14.064 2°55.488 4.6 342 4.4 102220 52
2012-03-06 08:05:49 51°14.074 2°55.479 5.4 348 4.4 102220 52
2012-03-06 08:05:54 51°14.084 2°55.469 5 346 4.4 102230 52
2012-03-06 08:05:59 51°14.094 2°55.46 5.4 349 4.4 102230 52
2012-03-06 08:06:04 51°14.105 2°55.45 5 348 4.4 102230 51
2012-03-06 08:06:09 51°14.115 2°55.44 5.6 349 4.4 102230 51
2012-03-06 08:06:14 51°14.125 2°55.429 4.8 351 4.4 102220 51
2012-03-06 08:06:19 51°14.136 2°55.418 5.6 347 4.4 102220 51
2012-03-06 08:06:24 51°14.147 2°55.408 5.3 342 4.4 102230 52
2012-03-06 08:06:29 51°14.157 2°55.398 6.4 349 4.4 102230 52
2012-03-06 08:06:34 51°14.168 2°55.387 4.6 346 4.3 102230 51
2012-03-06 08:06:39 51°14.179 2°55.376 6.3 346 4.3 102230 51
2012-03-06 08:06:44 51°14.189 2°55.364 5.8 343 4.3 102230 52
2012-03-06 08:06:49 51°14.2 2°55.353 5.6 348 4.3 102230 52
2012-03-06 08:06:54 51°14.211 2°55.342 5.9 348 4.3 102230 52
2012-03-06 08:06:59 51°14.222 2°55.33 5.9 347 4.3 102230 52
2012-03-06 08:07:04 51°14.232 2°55.319 6.4 350 4.3 102220 51
2012-03-06 08:07:09 51°14.243 2°55.307 5.7 351 4.3 102220 51
2012-03-06 08:07:14 51°14.253 2°55.295 6.1 350 4.3 102230 51
2012-03-06 08:07:19 51°14.264 2°55.283 6.3 352 4.3 102230 51
2012-03-06 08:07:24 51°14.275 2°55.272 6.4 352 4.3 102230 51
2012-03-06 08:07:29 51°14.286 2°55.261 6.1 351 4.3 102230 51
2012-03-06 08:07:34 51°14.297 2°55.248 5.9 353 4.3 102230 52
2012-03-06 08:07:39 51°14.308 2°55.236 5.8 354 4.3 102230 52
2012-03-06 08:07:44 51°14.32 2°55.226 6 352 4.3 102220 52
2012-03-06 08:07:49 51°14.333 2°55.215 6.2 350 4.3 102220 52
2012-03-06 08:07:53 51°14.342 2°55.206 6 350 4.2 102220 52
2012-03-06 08:07:59 51°14.356 2°55.192 6 352 4.2 102220 52
2012-03-06 08:08:04 51°14.367 2°55.18 5.6 352 4.2 102220 52
2012-03-06 08:08:09 51°14.378 2°55.167 6.1 355 4.2 102220 52
2012-03-06 08:08:13 51°14.388 2°55.159 6.4 354 4.2 102220 52
2012-03-06 08:08:18 51°14.4 2°55.148 5.4 355 4.2 102220 52
2012-03-06 08:08:24 51°14.414 2°55.134 5.7 353 4.2 102220 51
2012-03-06 08:08:29 51°14.427 2°55.123 6 353 4.2 102220 51
2012-03-06 08:08:33 51°14.437 2°55.114 6.7 352 4.2 102220 52
2012-03-06 08:08:39 51°14.45 2°55.099 6.8 355 4.2 102220 52
2012-03-06 08:08:44 51°14.462 2°55.087 7.3 356 4.2 102220 51
2012-03-06 08:08:49 51°14.474 2°55.076 7 353 4.2 102220 51
2012-03-06 08:08:54 51°14.486 2°55.064 6.4 352 4.2 102220 53
2012-03-06 08:08:59 51°14.498 2°55.052 6 352 4.2 102220 53
2012-03-06 08:09:04 51°14.51 2°55.04 6 355 4.2 102220 51
2012-03-06 08:09:09 51°14.521 2°55.028 6.7 356 4.2 102220 51
2012-03-06 08:09:13 51°14.531 2°55.018 7.4 355 4.2 102210 53
2012-03-06 08:09:18 51°14.543 2°55.006 7.1 355 4.2 102210 53
2012-03-06 08:09:23 51°14.555 2°54.994 7.5 356 4.2 102210 52
2012-03-06 08:09:28 51°14.567 2°54.981 7.4 356 4.2 102210 52
2012-03-06 08:09:33 51°14.578 2°54.967 7.1 356 4.3 102220 52
2012-03-06 08:09:37 51°14.587 2°54.956 7.3 356 4.3 102220 52
2012-03-06 08:09:42 51°14.599 2°54.942 7.4 356 4.2 102210 52
2012-03-06 08:09:47 51°14.61 2°54.927 6.8 360 4.2 102210 52
2012-03-06 08:09:52 51°14.621 2°54.912 7.2 360 4.2 102210 52
2012-03-06 08:09:57 51°14.631 2°54.897 6.6 357 4.2 102210 52
2012-03-06 08:10:01 51°14.641 2°54.884 6.6 358 4.2 102220 52
2012-03-06 08:10:06 51°14.652 2°54.869 6.2 355 4.2 102220 52
2012-03-06 08:10:11 51°14.663 2°54.853 6.7 357 4.2 102210 53
2012-03-06 08:10:16 51°14.674 2°54.837 6.6 359 4.2 102210 53
2012-03-06 08:10:21 51°14.685 2°54.822 6 353 4.2 102210 52
2012-03-06 08:10:25 51°14.694 2°54.809 7 353 4.2 102210 52
2012-03-06 08:10:30 51°14.705 2°54.794 6.1 354 4.2 102210 52
2012-03-06 08:10:36 51°14.719 2°54.776 6.5 352 4.2 102210 52
2012-03-06 08:10:41 51°14.731 2°54.762 8.9 354 4.2 102210 52
2012-03-06 08:10:45 51°14.741 2°54.751 7.9 353 4.2 102210 52
2012-03-06 08:10:51 51°14.755 2°54.734 6.7 351 4.2 102230 51
2012-03-06 08:10:56 51°14.767 2°54.72 6.8 353 4.2 102230 51
2012-03-06 08:11:01 51°14.778 2°54.705 7.1 354 4.2 102210 53
2012-03-06 08:11:05 51°14.788 2°54.693 7.2 353 4.2 102210 53
2012-03-06 08:11:11 51°14.802 2°54.675 6.9 354 4.2 102200 53
2012-03-06 08:11:16 51°14.814 2°54.66 7.3 353 4.2 102200 53
2012-03-06 08:11:21 51°14.825 2°54.645 7 354 4.2 102220 52
2012-03-06 08:11:25 51°14.835 2°54.633 7.6 354 4.2 102220 52
2012-03-06 08:11:31 51°14.849 2°54.614 7.4 355 4.2 102210 53
2012-03-06 08:11:36 51°14.862 2°54.6 7.2 354 4.2 102210 53
2012-03-06 08:11:41 51°14.873 2°54.585 7.1 353 4.2 102210 53
2012-03-06 08:11:45 51°14.882 2°54.572 6.8 351 4.2 102210 53
2012-03-06 08:11:50 51°14.896 2°54.56 6.6 351 4.2 102220 52
2012-03-06 08:11:56 51°14.911 2°54.544 7 351 4.2 102220 52
2012-03-06 08:12:01 51°14.924 2°54.532 7.2 352 4.2 102220 53
2012-03-06 08:12:05 51°14.934 2°54.523 8.4 350 4.2 102220 53
2012-03-06 08:12:11 51°14.951 2°54.51 7.8 350 4.2 102210 52
2012-03-06 08:12:16 51°14.964 2°54.501 8.5 351 4.2 102210 52
2012-03-06 08:12:21 51°14.978 2°54.492 7.5 350 4.2 102210 52
2012-03-06 08:12:25 51°14.99 2°54.486 7.7 347 4.2 102210 52
2012-03-06 08:12:31 51°15.006 2°54.479 9 349 4.2 102210 52
2012-03-06 08:12:36 51°15.02 2°54.473 8.2 349 4.2 102210 52
2012-03-06 08:12:41 51°15.034 2°54.469 9.1 349 4.2 102210 52
2012-03-06 08:12:45 51°15.044 2°54.465 8.5 348 4.2 102210 52
2012-03-06 08:12:48 51°13.592 2°56.194 1.6 20 4 102140 52
2012-03-06 08:12:48 51°13.592 2°56.194 0.8 307 4 102140 52
2012-03-06 08:12:48 51°13.592 2°56.194 0.3 249 4 102150 52
2012-03-06 08:12:48 51°13.592 2°56.194 1.1 301 4 102150 52
2012-03-06 08:12:48 51°13.592 2°56.194 2.5 247 4 102150 52
2012-03-06 08:12:48 51°13.592 2°56.194 2 312 4 102150 52
2012-03-06 08:12:48 51°13.592 2°56.194 2.1 246 4 102140 52
2012-03-06 08:12:48 51°13.592 2°56.194 1.9 302 4 102140 52
2012-03-06 08:12:48 51°13.592 2°56.194 1.4 245 4 102140 52
2012-03-06 08:12:48 51°13.592 2°56.194 1.6 305 4 102140 52
2012-03-06 08:12:48 51°13.592 2°56.194 1.5 20 4 102140 52
2012-03-06 08:12:48 51°13.592 2°56.194 0.8 309 4 102140 52
2012-03-06 08:12:50 51°15.058 2°54.461 7 347 4.1 102220 53
2012-03-06 08:12:56 51°15.075 2°54.456 7.5 348 4.1 102220 53
2012-03-06 08:13:01 51°15.089 2°54.453 7.8 350 4.1 102210 52
2012-03-06 08:13:05 51°15.1 2°54.45 7.2 347 4.1 102210 52
2012-03-06 08:13:11 51°15.117 2°54.445 8.7 347 4.2 102200 52
2012-03-06 08:13:16 51°15.131 2°54.441 7.3 284 4.2 102200 52
2012-03-06 08:13:21 51°15.145 2°54.437 8 347 4.1 102210 52
2012-03-06 08:13:25 51°15.156 2°54.434 8.6 346 4.1 102210 52
2012-03-06 08:13:31 51°15.173 2°54.43 8.3 348 4.2 102200 51
2012-03-06 08:13:36 51°15.187 2°54.426 7.6 280 4.2 102200 51
2012-03-06 08:13:41 51°15.201 2°54.422 7.4 350 4.2 102210 52
2012-03-06 08:13:45 51°15.212 2°54.418 10.4 349 4.2 102210 52
2012-03-06 08:13:51 51°15.228 2°54.411 8 349 4.1 102210 53
2012-03-06 08:13:56 51°15.241 2°54.406 7.9 351 4.1 102210 53
2012-03-06 08:14:01 51°15.255 2°54.402 8.2 348 4.1 102210 53
2012-03-06 08:14:05 51°15.266 2°54.398 7.5 350 4.1 102210 53
2012-03-06 08:14:11 51°15.282 2°54.391 6.8 351 4.1 102220 53
2012-03-06 08:14:16 51°15.297 2°54.386 8.8 349 4.1 102220 53
2012-03-06 08:14:21 51°15.31 2°54.381 8.5 350 4.1 102210 52
2012-03-06 08:14:25 51°15.321 2°54.377 7.2 279 4.1 102210 52
2012-03-06 08:14:31 51°15.338 2°54.371 8.2 349 4.1 102210 52
2012-03-06 08:14:36 51°15.351 2°54.366 8.6 348 4.1 102210 52
2012-03-06 08:14:41 51°15.365 2°54.362 8.7 347 4.1 102210 53
2012-03-06 08:14:45 51°15.377 2°54.359 8 349 4.1 102210 53
2012-03-06 08:14:51 51°15.393 2°54.355 7.8 347 4.1 102200 53
2012-03-06 08:14:56 51°15.407 2°54.353 7.6 282 4.1 102200 53
2012-03-06 08:15:01 51°15.421 2°54.351 7.9 346 4.1 102210 53
2012-03-06 08:15:05 51°15.433 2°54.35 9.1 345 4.1 102210 53
2012-03-06 08:15:11 51°15.45 2°54.35 9 345 4.1 102210 53
2012-03-06 08:15:16 51°15.464 2°54.35 8.4 284 4.1 102210 53
2012-03-06 08:15:21 51°15.477 2°54.349 9.3 345 4.1 102210 53
2012-03-06 08:15:25 51°15.489 2°54.349 8.5 346 4.1 102210 53
2012-03-06 08:15:30 51°15.503 2°54.348 9.4 345 4.1 102210 53
2012-03-06 08:15:36 51°15.52 2°54.346 8.2 281 4.1 102210 53
2012-03-06 08:15:41 51°15.534 2°54.344 8.8 346 4.1 102210 53
2012-03-06 08:15:45 51°15.546 2°54.344 8 346 4.1 102210 53
2012-03-06 08:15:51 51°15.563 2°54.34 8 348 4.1 102220 53
2012-03-06 08:15:56 51°15.577 2°54.337 8.4 346 4.1 102220 53
2012-03-06 08:16:01 51°15.591 2°54.333 8.1 347 4.1 102210 53
2012-03-06 08:16:05 51°15.602 2°54.331 9 347 4.1 102210 53
2012-03-06 08:16:11 51°15.619 2°54.326 10.2 347 4.1 102200 52
2012-03-06 08:16:16 51°15.633 2°54.321 8.6 348 4.1 102200 52
2012-03-06 08:16:21 51°15.647 2°54.317 7.5 348 4.1 102200 53
2012-03-06 08:16:25 51°15.658 2°54.314 8.2 284 4.1 102200 53
2012-03-06 08:16:30 51°15.672 2°54.311 7.8 346 4.1 102200 52
2012-03-06 08:16:36 51°15.689 2°54.307 8.1 345 4.1 102200 52
2012-03-06 08:16:41 51°15.703 2°54.304 7.6 347 4.1 102210 52
2012-03-06 08:16:45 51°15.714 2°54.303 9.3 344 4.1 102210 52
2012-03-06 08:16:51 51°15.73 2°54.302 8 346 4.1 102220 52
2012-03-06 08:16:56 51°15.744 2°54.301 7.5 281 4.1 102220 52
2012-03-06 08:17:01 51°15.758 2°54.301 9.2 347 4.1 102200 53
2012-03-06 08:17:05 51°15.769 2°54.303 8 344 4.1 102200 53
2012-03-06 08:17:11 51°15.785 2°54.303 9.4 345 4.1 102220 53
2012-03-06 08:17:16 51°15.798 2°54.305 8.5 282 4.1 102220 53
2012-03-06 08:17:21 51°15.812 2°54.307 7.5 344 4.1 102220 53
2012-03-06 08:17:25 51°15.823 2°54.309 8.5 344 4.1 102220 53
2012-03-06 08:17:31 51°15.839 2°54.313 9.1 344 4.1 102210 53
2012-03-06 08:17:36 51°15.852 2°54.316 7.8 280 4.1 102210 53
2012-03-06 08:17:41 51°15.866 2°54.319 7.7 344 4.1 102220 53
2012-03-06 08:17:45 51°15.877 2°54.321 7.1 345 4.1 102220 53
2012-03-06 08:17:50 51°15.89 2°54.322 8 346 4.1 102220 53
2012-03-06 08:17:56 51°15.906 2°54.324 7.7 345 4.1 102220 53
2012-03-06 08:18:01 51°15.92 2°54.324 9.1 344 4.1 102210 52
2012-03-06 08:18:05 51°15.931 2°54.325 9.3 344 4.1 102210 52
2012-03-06 08:18:11 51°15.947 2°54.325 9.2 345 4.1 102220 53
2012-03-06 08:18:16 51°15.961 2°54.324 8.9 345 4.1 102220 53
2012-03-06 08:18:21 51°15.975 2°54.324 9.3 344 4.1 102220 53
2012-03-06 08:18:25 51°15.986 2°54.323 9.1 346 4.1 102220 53
2012-03-06 08:18:31 51°16.002 2°54.321 8 347 4.1 102220 52
2012-03-06 08:18:36 51°16.017 2°54.321 9.2 347 4.1 102220 52
2012-03-06 08:18:41 51°16.03 2°54.318 8.8 349 4.1 102210 53
2012-03-06 08:18:45 51°16.041 2°54.317 8.6 346 4.1 102210 53
2012-03-06 08:18:50 51°16.055 2°54.315 7.7 349 4.1 102220 51
2012-03-06 08:18:56 51°16.071 2°54.311 7.8 348 4.1 102220 51
2012-03-06 08:19:01 51°16.085 2°54.306 8.2 350 4.1 102210 53
2012-03-06 08:19:05 51°16.095 2°54.303 7.7 351 4.1 102210 53
2012-03-06 08:19:10 51°16.109 2°54.299 7 353 4.1 102220 53
2012-03-06 08:19:16 51°16.125 2°54.293 7.5 351 4.1 102220 53
2012-03-06 08:19:21 51°16.138 2°54.288 8.8 351 4.1 102210 53
2012-03-06 08:19:25 51°16.149 2°54.285 7.4 351 4.1 102210 53
2012-03-06 08:19:31 51°16.166 2°54.28 7 349 4.1 102210 53
2012-03-06 08:19:36 51°16.179 2°54.277 8.8 278 4.1 102210 53
2012-03-06 08:19:41 51°16.193 2°54.275 8.4 349 4.1 102220 53
2012-03-06 08:19:45 51°16.203 2°54.274 7.7 348 4.1 102220 53
2012-03-06 08:19:51 51°16.216 2°54.274 7.9 346 4.1 102210 52
2012-03-06 08:19:56 51°16.227 2°54.275 7.7 280 4.1 102210 52
2012-03-06 08:20:01 51°16.236 2°54.277 7.4 346 4.1 102230 53
2012-03-06 08:20:05 51°16.243 2°54.28 7.6 345 4.1 102230 53
2012-03-06 08:20:11 51°16.253 2°54.284 7.4 345 4.1 102230 53
2012-03-06 08:20:16 51°16.26 2°54.288 8.6 281 4.1 102230 53
2012-03-06 08:20:21 51°16.267 2°54.292 7.7 344 4.1 102220 53
2012-03-06 08:20:25 51°16.272 2°54.296 7.6 -999 4.1 102220 53
2012-03-06 08:20:30 51°16.278 2°54.301 7.8 342 4.1 102220 53
2012-03-06 08:20:36 51°16.286 2°54.308 6.7 340 4.1 102220 53
2012-03-06 08:20:41 51°16.291 2°54.313 7.1 340 4.1 102210 53
2012-03-06 08:20:45 51°16.294 2°54.318 7 337 4.1 102210 53
2012-03-06 08:20:50 51°16.299 2°54.324 7.6 337 4.1 102220 53
2012-03-06 08:20:56 51°16.303 2°54.332 7 334 4.1 102220 53
2012-03-06 08:21:01 51°16.306 2°54.339 7.4 332 4.1 102230 53
2012-03-06 08:21:05 51°16.308 2°54.344 6.8 331 4.1 102230 53
2012-03-06 08:21:10 51°16.31 2°54.351 5.2 331 4.1 102210 52
2012-03-06 08:21:16 51°16.311 2°54.359 6.3 327 4.1 102210 52
2012-03-06 08:21:21 51°16.311 2°54.367 5.5 323 4.1 102230 53
2012-03-06 08:21:25 51°16.311 2°54.373 6.2 305 4.1 102230 53
2012-03-06 08:21:30 51°16.312 2°54.38 6.2 319 4.1 102230 52
2012-03-06 08:21:36 51°16.311 2°54.386 6.4 286 4.1 102230 52
2012-03-06 08:21:41 51°16.31 2°54.391 6 317 4.1 102230 53
2012-03-06 08:21:45 51°16.309 2°54.394 5.5 305 4.1 102230 53
2012-03-06 08:21:51 51°16.308 2°54.398 5.4 27 4.1 102230 52
2012-03-06 08:21:56 51°16.306 2°54.401 5.6 285 4.1 102230 52
2012-03-06 08:22:01 51°16.305 2°54.403 5.8 19 4.1 102230 53
2012-03-06 08:22:05 51°16.304 2°54.405 5.3 309 4.1 102230 53
2012-03-06 08:22:11 51°16.303 2°54.405 5.3 23 4.1 102230 53
2012-03-06 08:22:16 51°16.302 2°54.405 5.4 284 4.1 102230 53
2012-03-06 08:22:21 51°16.301 2°54.406 5.4 19 4.1 102230 53
2012-03-06 08:22:25 51°16.301 2°54.406 5.1 279 4.1 102230 53
2012-03-06 08:22:31 51°16.299 2°54.406 5.8 18 4.1 102230 52
2012-03-06 08:22:36 51°16.298 2°54.406 5.4 281 4.1 102230 52
2012-03-06 08:22:41 51°16.297 2°54.406 5.4 21 4.1 102230 52
2012-03-06 08:22:45 51°16.296 2°54.406 5.4 306 4.1 102230 52
2012-03-06 08:22:50 51°16.295 2°54.406 5.9 21 4.1 102230 52
2012-03-06 08:22:56 51°16.294 2°54.406 5.4 310 4.1 102230 52
2012-03-06 08:23:01 51°16.293 2°54.406 3.3 252 4.2 102220 54
2012-03-06 08:23:05 51°16.292 2°54.406 5.8 312 4.2 102220 54
2012-03-06 08:23:10 51°16.291 2°54.406 6.1 255 4.2 102230 54
2012-03-06 08:23:16 51°16.289 2°54.405 5.7 304 4.2 102230 54
2012-03-06 08:23:21 51°16.288 2°54.405 5.8 255 4.2 102230 53
2012-03-06 08:23:25 51°16.287 2°54.404 5.2 308 4.2 102230 53
2012-03-06 08:23:31 51°16.285 2°54.404 5.7 257 4.2 102230 53
2012-03-06 08:23:36 51°16.284 2°54.404 5.6 310 4.2 102230 53
2012-03-06 08:23:41 51°16.283 2°54.404 5.8 259 4.2 102230 54
2012-03-06 08:23:45 51°16.282 2°54.403 5.5 303 4.2 102230 54
2012-03-06 08:23:51 51°16.28 2°54.403 4.8 260 4.2 102230 54
2012-03-06 08:23:56 51°16.279 2°54.402 6 279 4.2 102230 54
2012-03-06 08:24:01 51°16.278 2°54.402 4.9 259 4.2 102240 53
2012-03-06 08:24:05 51°16.277 2°54.402 5.3 303 4.2 102240 53
2012-03-06 08:24:10 51°16.275 2°54.401 4.8 262 4.2 102230 53
2012-03-06 08:24:16 51°16.273 2°54.4 5 281 4.2 102230 53
2012-03-06 08:24:21 51°16.273 2°54.401 4.6 262 4.2 102230 52
2012-03-06 08:24:25 51°16.272 2°54.4 4.9 287 4.2 102230 52
2012-03-06 08:24:31 51°16.27 2°54.399 5.1 258 4.2 102230 53
2012-03-06 08:24:36 51°16.269 2°54.399 4.3 285 4.2 102230 53
2012-03-06 08:24:41 51°16.267 2°54.398 5.4 261 4.3 102240 52
2012-03-06 08:24:45 51°16.266 2°54.397 7 310 4.3 102240 52
2012-03-06 08:24:51 51°16.265 2°54.397 6.1 258 4.2 102230 52
2012-03-06 08:24:56 51°16.263 2°54.396 5.3 284 4.2 102230 52
2012-03-06 08:25:01 51°16.262 2°54.396 4.8 262 4.3 102230 52
2012-03-06 08:25:05 51°16.261 2°54.396 6.1 305 4.3 102230 52
2012-03-06 08:25:11 51°16.259 2°54.395 6.4 260 4.3 102230 53
2012-03-06 08:25:16 51°16.258 2°54.395 5.8 309 4.3 102230 53
2012-03-06 08:25:21 51°16.257 2°54.395 5.7 260 4.3 102230 53
2012-03-06 08:25:25 51°16.256 2°54.394 5.4 304 4.3 102230 53
2012-03-06 08:25:30 51°16.255 2°54.393 5 261 4.3 102230 52
2012-03-06 08:25:36 51°16.253 2°54.393 5.4 307 4.3 102230 52
2012-03-06 08:25:41 51°16.252 2°54.393 4.7 262 4.3 102230 54
2012-03-06 08:25:45 51°16.251 2°54.392 5.4 305 4.3 102230 54
2012-03-06 08:25:51 51°16.249 2°54.391 5 261 4.2 102240 53
2012-03-06 08:25:56 51°16.248 2°54.391 5.1 281 4.2 102240 53
2012-03-06 08:26:01 51°16.246 2°54.39 5.9 260 4.2 102230 53
2012-03-06 08:26:05 51°16.245 2°54.39 4.4 304 4.2 102230 53
2012-03-06 08:26:11 51°16.244 2°54.39 3.8 264 4.3 102230 52
2012-03-06 08:26:16 51°16.242 2°54.389 4.2 281 4.3 102230 52
2012-03-06 08:26:21 51°16.241 2°54.389 5.4 260 4.2 102240 53
2012-03-06 08:26:25 51°16.24 2°54.388 5.6 282 4.2 102240 53
2012-03-06 08:26:30 51°16.239 2°54.388 5.4 259 4.2 102230 53
2012-03-06 08:26:36 51°16.237 2°54.387 5.7 279 4.2 102230 53
2012-03-06 08:26:41 51°16.235 2°54.387 5.9 256 4.2 102240 54
2012-03-06 08:26:45 51°16.234 2°54.387 5.9 304 4.2 102240 54
2012-03-06 08:26:51 51°16.233 2°54.387 5.5 256 4.2 102230 52
2012-03-06 08:26:56 51°16.231 2°54.386 5.6 285 4.2 102230 52
2012-03-06 08:27:01 51°16.23 2°54.386 5.6 257 4.2 102230 54
2012-03-06 08:27:05 51°16.228 2°54.385 5.8 302 4.2 102230 54
2012-03-06 08:27:11 51°16.226 2°54.385 5.7 257 4.2 102230 53
2012-03-06 08:27:16 51°16.225 2°54.384 5.7 308 4.2 102230 53
2012-03-06 08:27:21 51°16.223 2°54.383 5.1 252 4.3 102230 53
2012-03-06 08:27:25 51°16.222 2°54.384 5.3 303 4.3 102230 53
2012-03-06 08:27:30 51°16.221 2°54.383 5.4 255 4.3 102240 52
2012-03-06 08:27:36 51°16.219 2°54.383 5.9 309 4.3 102240 52
2012-03-06 08:27:41 51°16.218 2°54.382 6.5 259 4.3 102230 53
2012-03-06 08:27:45 51°16.217 2°54.383 5.6 307 4.3 102230 53
2012-03-06 08:27:50 51°16.215 2°54.382 6.2 257 4.3 102230 52
2012-03-06 08:27:56 51°16.213 2°54.381 6.2 303 4.3 102230 52
2012-03-06 08:28:01 51°16.212 2°54.381 5.6 259 4.3 102230 52